Location: Unspecified
(0.0000°N, 0.0000°E)
Time: 21:07:41
(UTC+00:00)

Vanguard 2 - Visible Passes

Search period start: 01 September 2014 00:00
Search period end: 11 September 2014 00:00
Orbit: 553 x 2948 km, 32.9° (Epoch: 01 September)

Date Brightness Start Highest point End Pass type
(mag) Time Alt. Az. Time Alt. Az. Time Alt. Az.
01 Sep 11.2 02:24:12 15° SSE 02:25:38 16° SSE 02:33:20 10° ESE visible
01 Sep 10.8 04:25:45 11° SSW 04:38:35 48° SE 04:55:24 10° ENE visible
02 Sep 11.0 02:42:42 20° SSE 02:45:45 22° SE 02:56:32 10° ESE visible
02 Sep 10.6 04:44:23 10° SW 04:58:13 61° SE 05:15:55 10° ENE visible
03 Sep 10.7 03:01:15 25° S 03:05:35 29° SE 03:18:47 10° E visible
03 Sep 10.4 05:03:34 10° SW 05:17:50 77° SE 05:36:01 10° ENE visible
03 Sep 8.7 18:33:22 10° W 18:37:11 27° SW 18:40:34 10° SSE visible
04 Sep 10.5 03:19:50 29° S 03:25:12 39° SE 03:40:16 10° E visible
04 Sep 10.3 05:22:59 10° WSW 05:37:30 85° NW 05:55:46 10° NE visible
04 Sep 9.4 18:54:21 10° WSW 18:56:29 13° SW 18:58:31 10° S visible
05 Sep 11.4 01:36:54 13° SE 01:36:54 13° SE 01:39:29 10° ESE visible
05 Sep 10.3 03:38:27 32° SSW 03:44:42 52° SE 04:01:09 10° ENE visible
06 Sep 11.1 01:55:33 20° SE 01:55:33 20° SE 02:02:35 10° E visible
06 Sep 10.1 03:57:06 33° SW 04:04:11 68° SE 04:21:31 10° ENE visible
07 Sep 10.7 02:14:13 29° SE 02:14:13 29° SE 02:24:35 10° E visible
07 Sep 9.9 04:15:46 30° SW 04:23:43 87° SE 04:41:29 10° NE visible
08 Sep 10.2 02:32:53 41° SE 02:32:53 41° SE 02:45:49 10° ENE visible
08 Sep 10.0 04:34:26 25° WSW 04:43:23 75° NW 05:01:09 10° NE visible
09 Sep 9.8 02:51:33 57° SE 02:51:33 57° SE 03:06:28 10° ENE visible
09 Sep 10.2 04:53:06 19° WSW 05:03:13 59° NNW 05:20:35 10° NE visible
10 Sep 11.5 01:08:39 10° E 01:08:39 10° E 01:08:42 10° E visible
10 Sep 9.4 03:10:12 76° SSE 03:10:40 77° SE 03:26:40 10° ENE visible
10 Sep 10.5 05:11:46 13° W 05:23:16 46° NNW 05:39:52 10° NE visible
